Simultaneous Nadir Overpasses (SNOs) Predictions

Prediction of SNOs between GOES-16 and NOAA-20 Satellite Orbit:

Table of predicted SNOs for the next 14.0 days since TLE Epoch: 11/28/2025
Index Date Time (GOES-16) GOES-16 Lat,Lon NOAA-20 Lat,Lon Distance(km) Time Diff (sec)
1 11/29/2025 08:27:13 0.00,-104.68 0.09,-105.15 52.65 80
2 11/30/2025 08:05:50 -0.00,-104.68 -0.90,-100.61 463.23 80
3 12/01/2025 20:27:49 -0.01,-104.66 -0.29,-105.92 143.76 80
4 12/02/2025 20:11:46 -0.01,-104.66 0.69,-101.39 372.43 80
5 12/04/2025 08:33:36 0.02,-104.69 0.46,-106.67 225.78 80
6 12/05/2025 08:12:13 0.02,-104.68 -0.53,-102.13 289.58 80
7 12/06/2025 20:34:12 -0.02,-104.65 -0.65,-107.45 318.97 80
8 12/07/2025 20:18:09 -0.02,-104.65 0.39,-102.93 196.92 80
9 12/09/2025 08:39:59 0.02,-104.68 0.81,-108.19 400.31 80
10 12/10/2025 08:18:36 0.01,-104.68 -0.24,-103.67 115.46 80
11 12/11/2025 20:40:34 -0.02,-104.65 -0.99,-108.97 492.82 80
